Погода в Алеуре

Россия / Забайкальский край     52°32′59″N   117°02′40″E
темп.,
°C
ветер,
м/с
пор.,
м/с
влажн.,
%
обл.,
%
осадки,
мм/ч
давл.,
гПа
погр.,
м
28 июля, ср
ср2800:00+15ссв239465 0.2 100534
03:00+14ссв229490 0.3 100522
06:00+13ссв229510 0.0 100530
09:00+17св128866 0.1 1004476
12:00+16ссв349299 1.0 1005307
15:00+19св348046 1.2 1003656
18:00+20ссв126871 0.1 1003823
21:00+17ссз118037 0.2 100311
29 июля, чт
чт2900:00+14с118915 0.0 100311
03:00+12с119310 0.0 100310
06:00+12с11938 0.0 100311
09:00+17сз11795 0.0 1002349
12:00+21зюз226612 0.0 1001983
15:00+22сз336930 0.9 10001039
18:00+22ссз336814 0.6 10001066
21:00+16с33865 1.5 100132
30 июля, пт
пт3000:00+14ссв36955 0.0 1002147
03:00+12с339415 0.0 100351
06:00+11с229441 0.0 100441
09:00+16ссв378660 0.0 1004437
12:00+19св6868100 0.0 10041222
15:00+22всв465691 0.2 10031671
18:00+21в366599 0.1 1003231
21:00+18св5134872 0.1 1006413
31 июля, сб
сб3100:00+13ссв4106293 0.0 1007185
03:00+10с47788 0.0 1008104
06:00+9с4779100 0.0 1009117
09:00+16ссв59628 0.0 1009479
12:00+21св57435 0.0 10092302
15:00+22ссв683956 0.0 10082461
18:00+22ссв594819 0.0 1008870
21:00+14св47584 0.0 1011115
1 августа, вс
вс100:00+11ссв33726 0.0 101226
03:00+9с35780 0.0 101364
06:00+8с34820 0.0 101451
09:00+15с35620 0.0 1012491
12:00+19ссв47414 0.0 10112006
15:00+21св57356 0.0 10092396
18:00+22в144089 0.0 10081325
21:00+15в22616 0.0 101024